GW0175 Weather Reports


Display with metric or nautical units.
time (UTC)temp
F
wind
direction
speed
MPH
gust
MPH
rain 1hr
in
rain 24hr
in
rain mn
in
humidity
%
barometer
mb
20260505020759 80 239 6.0 8.0 0.00 0.00 0.00 22 1004.8
20260505020254 79 225 4.0 5.0 0.00 0.00 0.00 23 1005.1
20260505015752 79 312 2.0 7.0 0.00 0.00 0.00 23 1005.1
20260505015249 79 270 3.0 7.0 0.00 0.00 0.00 23 1005.1
20260505014746 78 344 3.0 6.0 0.00 0.00 0.00 24 1005.1
20260505014243 79 281 2.0 5.0 0.00 0.00 0.00 24 1004.8
20260505013739 79 292 2.0 6.0 0.00 0.00 0.00 24 1004.9
20260505013237 79 281 3.0 5.0 0.00 0.00 0.00 24 1004.8
20260505012735 79 285 0.0 4.0 0.00 0.00 0.00 25 1004.9
20260505012232 79 270 2.0 3.0 0.00 0.00 0.00 25 1004.9
20260505011728 79 270 0.0 2.0 0.00 0.00 0.00 25 1004.9
20260505011225 80 250 3.0 4.0 0.00 0.00 0.00 24 1005.0
20260505010721 80 257 0.0 3.0 0.00 0.00 0.00 24 1005.0
20260505010217 80 0 0.0 4.0 0.00 0.00 0.00 24 1004.8
20260505005714 80 251 0.0 4.0 0.00 0.00 0.00 23 1004.8
20260505005211 81 270 1.0 3.0 0.00 0.00 0.00 22 1004.8
20260505004708 81 291 1.0 5.0 0.00 0.00 0.00 21 1004.8
20260505004204 81 283 1.0 5.0 0.00 0.00 0.00 20 1004.8
20260505003702 82 291 1.0 9.0 0.00 0.00 0.00 19 1004.9
20260505003159 82 264 2.0 7.0 0.00 0.00 0.00 20 1005.0
20260505002655 82 264 3.0 8.0 0.00 0.00 0.00 19 1005.2
20260505002153 82 299 4.0 7.0 0.00 0.00 0.00 19 1004.9
20260505001650 82 301 6.0 10.0 0.00 0.00 0.00 19 1005.1
20260505001148 83 270 7.0 9.0 0.00 0.00 0.00 19 1005.2
20260505000644 83 253 5.0 8.0 0.00 0.00 0.00 19 1005.1
20260505000143 83 259 5.0 12.0 0.00 0.00 0.00 18 1005.1
20260504235638 83 247 6.0 9.0 0.00 0.00 0.00 18 1005.2
20260504235135 83 293 9.0 16.0 0.00 0.00 0.00 19 1005.0
20260504234632 83 255 7.0 17.0 0.00 0.00 0.00 18 1005.1
20260504234130 83 250 9.0 19.0 0.00 0.00 0.00 19 1005.0
20260504233625 83 257 13.0 16.0 0.00 0.00 0.00 19 1005.1
20260504233121 83 241 10.0 22.0 0.00 0.00 0.00 18 1005.0
20260504232619 83 308 9.0 13.0 0.00 0.00 0.00 18 1005.2
20260504232116 84 309 11.0 17.0 0.00 0.00 0.00 18 1004.9
20260504231613 84 253 14.0 18.0 0.00 0.00 0.00 18 1004.9
20260504231109 84 256 5.0 15.0 0.00 0.00 0.00 19 1005.2
20260504230605 85 294 8.0 14.0 0.00 0.00 0.00 18 1004.8
20260504230104 84 282 12.0 18.0 0.00 0.00 0.00 18 1005.1
20260504225601 85 251 8.0 19.0 0.00 0.00 0.00 17 1004.8
20260504225058 85 228 10.0 19.0 0.00 0.00 0.00 17 1005.3
20260504224555 84 257 8.0 14.0 0.00 0.00 0.00 18 1004.9
20260504224052 84 255 11.0 17.0 0.00 0.00 0.00 17 1005.1
20260504223549 84 273 4.0 17.0 0.00 0.00 0.00 16 1005.2
20260504223044 84 267 4.0 14.0 0.00 0.00 0.00 17 1005.1
20260504222542 84 247 4.0 18.0 0.00 0.00 0.00 17 1005.4
20260504222039 84 239 9.0 14.0 0.00 0.00 0.00 16 1005.0
20260504221536 83 266 7.0 25.0 0.00 0.00 0.00 16 1005.1
20260504221032 84 282 8.0 16.0 0.00 0.00 0.00 17 1005.2
20260504220529 84 239 14.0 23.0 0.00 0.00 0.00 17 1005.3
20260504220026 84 231 16.0 27.0 0.00 0.00 0.00 17 1005.3
20260504215523 84 248 6.0 21.0 0.00 0.00 0.00 17 1005.2
20260504215020 85 262 8.0 20.0 0.00 0.00 0.00 17 1005.4
20260504214516 85 230 12.0 15.0 0.00 0.00 0.00 16 1005.4
20260504214012 86 320 5.0 25.0 0.00 0.00 0.00 16 1005.3
20260504213509 86 247 16.0 21.0 0.00 0.00 0.00 16 1005.3
20260504213007 86 275 8.0 18.0 0.00 0.00 0.00 16 1005.5
20260504212502 86 247 5.0 11.0 0.00 0.00 0.00 16 1005.1
20260504212000 87 242 7.0 10.0 0.00 0.00 0.00 16 1005.4
20260504211456 86 289 2.0 11.0 0.00 0.00 0.00 16 1005.4
20260504210954 86 227 5.0 7.0 0.00 0.00 0.00 17 1005.5
20260504210450 87 278 6.0 10.0 0.00 0.00 0.00 17 1005.7
20260504205947 86 296 5.0 13.0 0.00 0.00 0.00 16 1006.1
20260504205444 87 278 4.0 10.0 0.00 0.00 0.00 17 1006.0
20260504204943 86 214 6.0 11.0 0.00 0.00 0.00 17 1006.1
20260504204441 86 313 6.0 10.0 0.00 0.00 0.00 17 1006.2
20260504203940 86 273 3.0 10.0 0.00 0.00 0.00 18 1006.4
20260504203437 86 310 3.0 12.0 0.00 0.00 0.00 19 1006.3
20260504202933 86 329 3.0 6.0 0.00 0.00 0.00 19 1006.4
20260504202430 85 280 4.0 12.0 0.00 0.00 0.00 18 1006.6
20260504201926 84 232 4.0 11.0 0.00 0.00 0.00 19 1006.5
20260504201424 84 324 3.0 8.0 0.00 0.00 0.00 19 1006.5
20260504200921 84 267 4.0 10.0 0.00 0.00 0.00 19 1006.8
20260504200418 85 275 6.0 13.0 0.00 0.00 0.00 20 1006.8
20260504195915 84 254 4.0 16.0 0.00 0.00 0.00 20 1006.6
20260504195410 84 280 4.0 10.0 0.00 0.00 0.00 19 1006.8
20260504194907 85 308 2.0 10.0 0.00 0.00 0.00 20 1007.1
20260504194403 84 315 3.0 7.0 0.00 0.00 0.00 19 1006.9
20260504193859 85 286 1.0 7.0 0.00 0.00 0.00 19 1007.1
20260504193356 84 248 8.0 13.0 0.00 0.00 0.00 19 1007.4
20260504192855 84 259 2.0 9.0 0.00 0.00 0.00 20 1007.2
20260504192352 84 258 4.0 9.0 0.00 0.00 0.00 19 1007.1
20260504191850 85 228 5.0 8.0 0.00 0.00 0.00 20 1007.3
20260504191348 84 227 5.0 8.0 0.00 0.00 0.00 19 1007.2
20260504190843 84 262 4.0 10.0 0.00 0.00 0.00 19 1007.5
20260504190339 84 247 9.0 12.0 0.00 0.00 0.00 20 1007.4
20260504185836 85 355 2.0 10.0 0.00 0.00 0.00 20 1007.5
20260504185333 84 213 5.0 8.0 0.00 0.00 0.00 20 1007.8
20260504184829 84 261 1.0 5.0 0.00 0.00 0.00 20 1007.7
20260504184325 84 281 3.0 7.0 0.00 0.00 0.00 20 1008.0
20260504183821 84 252 4.0 9.0 0.00 0.00 0.00 20 1007.8
20260504183319 84 303 5.0 7.0 0.00 0.00 0.00 20 1007.9
20260504182816 83 303 3.0 7.0 0.00 0.00 0.00 21 1008.0
20260504182314 83 294 1.0 13.0 0.00 0.00 0.00 21 1008.0
20260504181811 82 254 3.0 11.0 0.00 0.00 0.00 22 1007.8
20260504181308 83 294 2.0 10.0 0.00 0.00 0.00 23 1008.0
20260504180807 83 321 3.0 10.0 0.00 0.00 0.00 24 1008.2
20260504180305 82 244 5.0 11.0 0.00 0.00 0.00 24 1008.4
20260504175803 81 263 3.0 16.0 0.00 0.00 0.00 25 1008.0
20260504175259 81 235 8.0 11.0 0.00 0.00 0.00 25 1008.5
20260504174757 81 251 12.0 13.0 0.00 0.00 0.00 25 1008.7
20260504174255 81 249 4.0 13.0 0.00 0.00 0.00 27 1008.5
20260504173751 81 247 5.0 15.0 0.00 0.00 0.00 27 1008.8
20260504173248 81 238 4.0 15.0 0.00 0.00 0.00 28 1008.6
20260504172745 81 264 7.0 11.0 0.00 0.00 0.00 28 1008.7
20260504172241 80 246 6.0 13.0 0.00 0.00 0.00 27 1008.8
20260504171737 80 225 10.0 15.0 0.00 0.00 0.00 29 1009.0
20260504171235 80 251 6.0 8.0 0.00 0.00 0.00 29 1008.9
20260504170732 80 246 5.0 7.0 0.00 0.00 0.00 29 1009.0
20260504170229 80 225 3.0 11.0 0.00 0.00 0.00 29 1009.0
20260504160147 74 155 3.0 5.0 0.00 0.00 0.00 50 1009.7
20260504151115 68 174 4.0 5.0 0.00 0.00 0.00 62 1010.2
20260504150613 67 174 4.0 5.0 0.00 0.00 0.00 65 1010.3
20260504150109 66 146 2.0 6.0 0.00 0.00 0.00 66 1010.1
20260504141038 62 151 3.0 5.0 0.00 0.00 0.00 76 1010.6
20260504140534 62 166 3.0 4.0 0.00 0.00 0.00 76 1010.6
20260504130459 57 29 0.0 2.0 0.00 0.00 0.00 86 1010.3
20260504110346 56 251 0.0 1.0 0.00 0.00 0.00 83 1009.1
20260504100303 56 81 0.0 2.0 0.00 0.00 0.00 78 1009.4
20260504081657 60 145 0.0 2.0 0.00 0.00 0.00 72 1009.9
20260504081153 60 157 2.0 2.0 0.00 0.00 0.00 71 1009.9
20260504080649 61 162 0.0 3.0 0.00 0.00 0.00 70 1010.0
20260504080146 60 165 2.0 4.0 0.00 0.00 0.00 70 1009.9
20260504070114 61 180 0.0 3.0 0.00 0.00 0.00 69 1011.0
20260504050503 62 132 0.0 3.0 0.00 0.00 0.00 68 1011.2
20260504045959 62 140 0.0 3.0 0.00 0.00 0.00 66 1011.0
20260504045455 63 112 2.0 3.0 0.00 0.00 0.00 64 1011.2
20260504044951 64 145 0.0 3.0 0.00 0.00 0.00 63 1011.0
20260504044449 64 156 2.0 3.0 0.00 0.00 0.00 62 1011.2
20260504043946 64 159 2.0 4.0 0.00 0.00 0.00 61 1011.0
20260504043443 65 154 3.0 5.0 0.00 0.00 0.00 60 1011.1
20260504042941 64 175 0.0 4.0 0.00 0.00 0.00 60 1011.2
20260504042437 65 158 2.0 3.0 0.00 0.00 0.00 60 1011.3
20260504041934 65 154 2.0 3.0 0.00 0.00 0.00 60 1011.3
20260504041430 65 166 1.0 3.0 0.00 0.00 0.00 59 1011.4
20260504040926 66 159 3.0 3.0 0.00 0.00 0.00 58 1011.2
20260504040424 66 172 0.0 3.0 0.00 0.00 0.00 58 1011.2
20260504035920 66 160 1.0 4.0 0.00 0.00 0.00 57 1011.4
20260504035417 66 149 3.0 4.0 0.00 0.00 0.00 56 1011.2
20260504034914 66 186 0.0 4.0 0.00 0.00 0.00 56 1011.3
20260504034412 66 180 2.0 6.0 0.00 0.00 0.00 57 1011.4
20260504033908 65 220 3.0 6.0 0.00 0.00 0.00 60 1011.4
20260504033406 65 210 2.0 5.0 0.00 0.00 0.00 60 1011.4
20260504032903 65 237 2.0 3.0 0.00 0.00 0.00 59 1011.2
20260504032400 65 236 2.0 4.0 0.00 0.00 0.00 58 1011.4
20260504031856 65 227 0.0 5.0 0.00 0.00 0.00 59 1011.2
20260504031353 64 251 0.0 2.0 0.00 0.00 0.00 62 1011.4
20260504030850 65 151 0.0 2.0 0.00 0.00 0.00 61 1011.3
20260504030347 66 152 2.0 2.0 0.00 0.00 0.00 58 1011.4
20260504025843 66 187 0.0 2.0 0.00 0.00 0.00 58 1011.1
20260504025340 67 140 2.0 2.0 0.00 0.00 0.00 57 1010.9
20260504024837 67 180 0.0 2.0 0.00 0.00 0.00 56 1010.8
20260504024333 67 166 0.0 2.0 0.00 0.00 0.00 56 1010.8
20260504023830 67 180 0.0 2.0 0.00 0.00 0.00 55 1010.9
20260504023327 67 234 1.0 2.0 0.00 0.00 0.00 53 1011.0
20260504022823 68 229 2.0 3.0 0.00 0.00 0.00 53 1011.0
20260504022320 68 180 0.0 3.0 0.00 0.00 0.00 53 1010.7
20260504021816 68 111 0.0 2.0 0.00 0.00 0.00 52 1010.6
20260504021314 69 270 0.0 3.0 0.00 0.00 0.00 52 1010.6